Terminal Aerodrome Forecast
Issued by NWS

Current Version | Previous Version | Graphics & Text | Print | Product List | Glossary On
Versions: 1 2 3 4 5 6 7 8 9 10 11 12 13 14 15 16 17 18
000
FTUS41 KILN 040500
TAFLUK
TAF
KLUK 040528Z 0406/0506 00000KT P6SM OVC045
     FM040800 00000KT 4SM BR SCT015 BKN080
      TEMPO 0409/0412 2SM BR
     FM041300 01004KT P6SM FEW040 SCT080
     FM041800 34006KT P6SM SCT040
     FM050000 VRB03KT P6SM FEW040
     FM050300 00000KT 4SM BR SKC=

USA.gov is the U.S. government's official web portal to all federal, state and local government web resources and services.